sat.trackr.live / text

‹ back to catalog

STARLINK-4606

NORAD 53632 · 2022-104AW

PAYLOAD ACTIVE UNKNOWN

§ Identity

Operator
Country
US
Launch date
2022-08-28
Launch site
AFETR
Launch vehicle
Mass (kg)
RCS (m²)

Purposes: comms

External: N2YO · Heavens-Above · Gunter

§ Orbital elements

Epoch: 2026-09-20T17:42:17.326656Z

Period
93.79 min
Inclination
53.1609°
Eccentricity
0.0001197
Mean motion
15.35403283 rev/d
Perigee alt
458.9 km
Apogee alt
460.5 km
Semi-major
6,837.9 km
B*
3.4213e-5
RAAN
60.6533°
Arg perigee
87.6225°
Mean anomaly
272.4916°
Rev number
22,577

§ Raw data

STARLINK-46061 53632U 22104AW  26263.73770054  .00000813  00000+0  34213-4 0  99982 53632  53.1609  60.6533 0001197  87.6225 272.4916 15.35403283225774

JSON: /api/v1/satellites/53632 · /tle

For live sub-satellite position, see the globe view (requires WebGL).

§ Visibility from observer

Set your observer location to see the next 7 days of passes ≥ 10°. The values pass through the URL so the page stays shareable.

No JS? Fill the form by hand. The geolocation button needs JavaScript.